Regional Weather Roundup
Issued by NWS

Home | Current Version | Previous Version | Text Only | Print | Product List | Glossary Off
Versions: 1 2 3 4 5 6 7 8 9 10 11 12 13 14 15 16 17 18 19 20 21 22 23 24 25 26 27 28 29 30 31 32 33 34 35 36 37 38 39 40 41 42 43 44 45 46 47 48 49 50

000
ASUS43 KMPX 210910
RWRMN
WEATHER ROUNDUP FOR MINNESOTA
NATIONAL WEATHER SERVICE TWIN CITIES/CHANHASSEN MN
400 AM CDT MON APR 21 2014


NOTE: "FAIR" INDICATES FEW OR NO CLOUDS BELOW 12,000 FEET WITH NO
SIGNIFICANT WEATHER AND/OR OBSTRUCTIONS TO VISIBILITY. N/A MEANS
CURRENT SKY AND/OR WEATHER CONDITIONS ARE NOT AVAILABLE.

MNZ060>063-068>070-211000-
   Twin Cities Metro

CITY           SKY/WX    TMP DP  RH WIND       PRES   REMARKS
TWIN CITIES    LGT RAIN  58  57  97 S12       29.87F FOG
ST PAUL        LGT RAIN  57  55  93 SE18      29.87F FOG
CRYSTAL        CLOUDY    60  55  83 SW6       29.89R
BLAINE         CLOUDY    57  55  94 CALM      29.90R
EDEN PRAIRIE   LGT RAIN  59  56  89 NW13      29.90S FOG
LAKEVILLE      RAIN      54  52  94 SE5       29.89F
SOUTH ST PAUL  LGT RAIN  59  56  88 SE5       29.89F
LAKE ELMO      LGT RAIN  54  54 100 SE10      29.89F
$$
MNZ001>005-007-008-013>017-022>024-027-028-211000-
   Northwest Minnesota

CITY           SKY/WX    TMP DP  RH WIND       PRES   REMARKS
BEMIDJI        CLOUDY    51  33  49 SW5       29.89S
HALLOCK        CLOUDY    39  36  87 NW17G23   29.90R
ROSEAU         CLEAR     43  37  81 W10       29.84R
WARROAD        PTCLDY    46  41  81 W12       29.83R
THIEF RVR FALL PTCLDY    48  34  57 W14       29.88F
CROOKSTON      CLEAR     48  37  66 W13       29.91S
FOSSTON        MOCLDY    46  34  61 W8        29.92R
DETROIT LAKES  PTCLDY    50  32  50 W7        29.95R
MOORHEAD       PTCLDY    46  37  71 W10       29.96R
PARK RAPIDS    CLOUDY    46  36  68 SW5       29.91F
$$
MNZ006-009>011-018-025>026-211000-
   North Central Minnesota

CITY           SKY/WX    TMP DP  RH WIND       PRES   REMARKS
BAUDETTE       MOCLDY    44  35  70 SW8       29.81F
FLAG ISLAND    CLEAR     48  39  71 W15       29.78R
INTL FALLS     MOCLDY    48  30  49 VRB5      29.82F
WASKISH        MOCLDY    52  36  54 S5        29.85F
BIG FORK       PTCLDY    43  28  56 CALM      29.89F
LONGVILLE      PTCLDY    39  30  70 CALM      29.92R
GRAND RAPIDS   PTCLDY    50  28  43 S10       29.91F
CRANE LAKE     PTCLDY    45  28  53 CALM      29.89R
ORR            MOCLDY    46  27  46 S3        29.87S
COOK           PTCLDY    48  28  46 SW3       29.91R
$$
MNZ012-019>021-037-211000-
   Northeast Minnesota

CITY           SKY/WX    TMP DP  RH WIND       PRES   REMARKS
DULUTH         PTCLDY    43  28  55 SE7       29.88F
ELY            MOCLDY    46  27  46 S5        29.87S
HIBBING        MOCLDY    42  29  59 W8        29.92R
EVELETH        CLOUDY    32  30  93 CALM      29.89S
DULUTH HARBOR  PTCLDY    32  28  86 CALM      29.90F
SILVER BAY     CLEAR     27  27 100 CALM      29.89F
GRAND MARAIS     N/A     35  30  82 CALM      29.91F
G MARAIS ARPRT MOCLDY    30  23  74 CALM      29.92F
$$
MNZ029>031-032-039>041-046>048-054>057-064-211000-
   West Central Minnesota

CITY           SKY/WX    TMP DP  RH WIND       PRES   REMARKS
FERGUS FALLS   PTCLDY    54  30  40 CALM      29.93R
WHEATON        PTCLDY    54  39  58 W9        29.99R
MORRIS         PTCLDY    55  37  50 NW10      29.93S
ALEXANDRIA     MOCLDY    53  36  52 CALM      29.95F
ELBOW LAKE     FAIR      51  37  57 N7        29.95S
WADENA         PTCLDY    50  36  57 CALM      29.94S
GLENWOOD       PTCLDY    54  37  54 NW5       29.95F
APPLETON       CLOUDY    57  43  58 NW7       29.92F
BENSON         CLOUDY    57  45  62 CALM      29.93F
ORTONVILLE     CLEAR     54  36  50 NW13      29.95R
MADISON        MOCLDY    61  45  55 N12       29.93S
WILLMAR        FAIR      55  52  88 CALM      29.90F
$$
MNZ033>034-036-042>043-049>051-058-059-211000-
   Central Minnesota

CITY           SKY/WX    TMP DP  RH WIND       PRES   REMARKS
ST CLOUD       MOCLDY    52  38  58 SE5       29.88F
SAUK CENTRE    CLOUDY    54  38  55 NW7       29.94R
PAYNESVILLE    MOCLDY    54  39  57 CALM      29.89F
AITKIN         PTCLDY    54  32  43 SW3       29.93R
PINE RIVER     CLEAR     45  34  65 CALM      29.96R
BRAINERD       PTCLDY    54  32  43 S3        29.94R
STAPLES        CLEAR     48  34  57 W5        29.94R
LONG PRAIRIE   FAIR      54  34  47 CALM      29.95R
LITTLE FALLS   PTCLDY    54  32  43 NW3       29.95R
LITCHFIELD       N/A     55  55 100 CALM      29.89F
BUFFALO        RAIN      53  47  80 S6        29.89F
MAPLE LAKE     CLOUDY    52  43  69 CALM      29.90S
$$
MNZ037-044-045-052-053-211000-
   East Central Minnesota

CITY           SKY/WX    TMP DP  RH WIND       PRES   REMARKS
PRINCETON      CLOUDY    52  39  62 CALM      29.89F
MORA           CLOUDY    45  37  76 CALM      29.90F
CAMBRIDGE      CLOUDY    54  39  58 CALM      29.87S
RUSH CITY      MOCLDY    48  37  65 CALM      29.89F
MOOSE LAKE     PTCLDY    34  30  86 CALM      29.87F
HINCKLEY       PTSUNNY   46  34  61 CALM      29.89F
CLOQUET        PTCLDY    43  28  56 CALM      29.88F
MCGREGOR       PTCLDY    48  32  53 W6        29.90R
$$
MNZ071>073-080-081-089-090-097-098-211000-
   Southwest Minnesota

CITY           SKY/WX    TMP DP  RH WIND       PRES   REMARKS
MONTEVIDEO     MOCLDY    54  46  76 N6        29.94R
GRANITE FALLS  CLOUDY    53  49  83 NW8       29.93R
CANBY          MOCLDY    51  47  85 NW8       29.94R
MARSHALL       CLOUDY    52  46  82 NW18      29.91R
REDWOOD FALLS  MOCLDY    58  54  86 NE6       29.88R
OLIVIA         MOCLDY    54  50  87 E7        29.89S
PIPESTONE      CLOUDY    59  50  72 N6        29.88F
WINDOM         MOCLDY    59  54  82 S9        29.89R
WORTHINGTON    MOCLDY    57  46  67 SW9       29.91S
JACKSON        MOCLDY    61  52  72 S13       29.92R
TRACY          LGT RAIN  58  53  81 W3        29.87F
SLAYTON        LGT RAIN  58  50  74 NW18      29.90S
$$
MNZ065>067-074>077-082>085-091>093-211000-
   South Central Minnesota

CITY           SKY/WX    TMP DP  RH WIND       PRES   REMARKS
MANKATO        CLOUDY    57  54  88 S8        29.89S
NEW ULM        MOCLDY    57  55  94 SE5       29.89R
ST JAMES       MOCLDY    59  54  82 S7        29.89S
FAIRMONT       MOCLDY    57  52  82 S13       29.92S
GLENCOE        CLOUDY    60  53  79 N5        29.89R
FARIBAULT      CLOUDY    63  55  77 N9        29.93R
OWATONNA       CLOUDY    61  54  77 S12       29.91R
WASECA         CLOUDY    59  55  88 S9        29.92S
ALBERT LEA     CLOUDY    57  57 100 SE8       29.92S FOG
$$
MNZ078>079-086>088-094>096-211000-
   Southeast Minnesota

CITY           SKY/WX    TMP DP  RH WIND       PRES   REMARKS
ROCHESTER      LGT RAIN  58  53  84 S15       29.93F
RED WING       CLOUDY    54  52  94 CALM      29.91R FOG
STANTON        TSTM      58  55  91 CALM      29.92R
DODGE CENTER   RAIN      61  57  88 S13       29.92F
WINONA           N/A    N/A N/A N/A MISG        N/A
AUSTIN         CLOUDY    57  55  94 E3        29.94S
PRESTON        LGT RAIN  57  56  96 SW14      29.94F
$$
ABBREVIATIONS USED IN REMARKS
   TC - TEMPERATURES IN CELSIUS
  WCI - WIND CHILL INDEX
   HX - HEAT INDEX
  VSB - VISIBILITY
$$


USA.gov is the U.S. government's official web portal to all federal, state and local government web resources and services.